FENGYUN 1C DEB

Satellite information

Favourite Embed

Satellite Type and Status

DEBRISIN ORBIT

Key statistics

Satellite FENGYUN 1C DEB at a glance.

Uptime

9717

Days in orbit

Revolutions

≈ 14.3

Per day

Orbit

SSO

Sun Synchronous Orbit

Inclination

98.5

Latest

Satellite identification and parameters

Extended collection of information and parameters for FENGYUN 1C DEB.

Object identification

Identified? True

Debris? True

Object name: FENGYUN 1C DEB

International designator: 1999-025BQG

Object number (NORAD): 31328

Object ID (CCSDS): 31328

Country: PEOPLES REPUBLIC OF CHINA (PRC)

Current information (Y/N): Y

RCS size: SMALL

Orbital parameters

Period: 100.774 minutes

Inclination: 98.4834 deg

SMA: 7173.393 km

Apoapsis: 869.668 km

Periapsis: 720.847 km

RAAN: 323.0731 deg

Eccentricy: 0.01037313

Argument of periapsis: 208.6238 deg

Mean anomaly: 150.9226 deg

Mean motion: 14.28946032 rev/day

Mean motion (dot): 0.00000182 rev/day2

B* drag term: 0.000083908272 1/REarth

Two-line elements (TLE)

Creation date: Dec. 16, 2025, 2:19 a.m.

Reference frame: TEME

Reference center: EARTH

Epoch: Dec. 15, 2025, 9:02 a.m. UTC

TLE line 0: 0 FENGYUN 1C DEB

TLE line 1: 1 31328U 99025BQG 25349.37698983 .00000182 00000-0 83908-4 0 9991

TLE line 2: 2 31328 98.4834 323.0731 0103731 208.6238 150.9226 14.28946032975003

Live tracking on map

Real-time ground track for satellite FENGYUN 1C DEB.

In-orbit conjunctions

A list of the most updated potential collisions computed for object FENGYUN 1C DEB.

Target Orbit TCA Probability of collision Miss distance Type
CZ-4 DEB SSO 2025-10-17 13:41:49 0.0002062441 82.0 (m) DEBRIS
FENGYUN 1C DEB SSO 2024-10-07 12:55:10 0.0001007558 50.0 (m) DEBRIS

Associated space launch

Chinese polar orbiting meteorological satellite

FENGYUN 1C DEB was lifted into orbit during the mission ‘Long March 4B | Feng Yun 1C’, on board a Long March 4B space rocket.

The launch took place on May 10, 1999, 1:33 a.m. from Launch Complex 7.

For more information about the launch, click the button.

Launch to space Long March 4B | Feng Yun 1C
Long March 4B | Feng Yun 1C

Agency: N/A

Status: Launch Successful

Launch date: May 10, 1999, 1:33 a.m. UTC

Rocket: Long March 4B

Launch pad: Launch Complex 7

Location: Taiyuan Satellite Launch Center, People's Republic of China

...

Latest news about this satellite

There are no fresh news available about this satellite. Check back as we update our databases every day.


Newsletter sign-up

Weekly statistics, charts and insights to help you stay on top of the space industry.